Lapse_Rate
5.9 5.9 5.9 5.7 5.8 5.8 5.8 5.8 5.8 5.9 6.1 5.9 5.4 5.3 5.4 5.4 5.2 5.2 5.2 5.3 5.2 5.2 5.2 5.2 5.2 5.2 5.0 4.8 4.5 4.2 4.1 4.0 3.7 3.5 3.5 3.5 3.6 3.6 3.7 3.9 4.0 4.0 4.0 4.1
6.1 6.0 5.9 5.9 5.7 5.8 5.9 5.9 5.9 5.9 5.7 5.3 5.3 5.2 5.3 5.2 5.3 5.3 5.3 5.2 5.1 5.0 5.0 5.0 5.0 5.0 4.9 4.7 4.6 4.6 4.5 4.2 4.1 4.0 3.8 3.6 3.5 3.5 3.5 3.5 3.6 3.7 3.9 4.0
6.2 6.1 6.1 6.0 5.9 5.9 5.8 5.8 5.7 5.7 5.6 5.6 5.2 5.2 5.1 5.2 5.2 5.2 5.2 5.3 5.2 4.9 4.7 4.6 4.6 4.6 4.7 4.7 4.5 4.3 4.2 4.2 4.2 4.2 4.1 4.1 4.0 3.7 3.5 3.5 3.5 3.5 3.7 3.7
6.3 6.3 5.3 6.3 6.2 6.1 6.1 6.1 6.0 5.8 5.8 5.5 5.3 5.2 5.1 5.1 5.1 5.0 4.9 4.7 4.7 4.7 4.7 4.5 4.3 4.1 4.2 4.2 4.3 4.4 4.3 4.2 4.1 4.0 4.0 3.9 3.9 3.9 3.9 3.9 3.8 3.6 3.6 3.7
6.5 6.5 6.6 6.5 6.5 6.5 6.4 6.5 6.4 6.1 6.0 5.8 5.9 5.8 5.4 5.4 5.3 5.1 4.9 4.8 4.7 4.7 4.7 4.6 4.4 4.2 4.1 4.2 4.2 4.2 4.2 4.3 4.2 4.1 4.1 4.0 4.0 4.0 4.1 4.1 4.0 4.0 3.9 3.8
6.5 6.2 6.5 6.6 6.7 6.7 6.7 6.7 6.7 6.6 6.5 6.3 6.1 6.1 5.6 5.5 5.4 5.2 5.0 4.9 4.8 4.8 4.7 4.8 4.7 4.7 4.6 4.5 4.4 4.3 4.4 4.4 4.4 4.3 4.2 4.3 4.3 4.3 4.2 4.1 4.0 4.1 4.2 4.2
6.3 6.3 6.3 6.4 6.7 6.7 6.7 6.6 6.5 6.6 6.4 6.3 6.2 6.0 5.9 5.6 5.5 5.4 5.2 5.1 5.1 5.1 4.9 4.7 4.7 4.8 4.9 4.8 4.7 4.7 4.6 4.8 4.8 4.6 4.5 4.5 4.6 4.6 4.6 4.6 4.5 4.4 4.3 4.2
6.5 6.5 6.1 6.4 6.5 6.5 6.6 6.6 6.5 6.4 6.2 6.1 6.0 5.8 5.8 5.7 5.6 5.5 5.5 5.3 5.2 5.3 5.2 5.1 5.1 5.1 5.0 4.9 5.0 5.0 5.0 4.9 4.8 4.8 4.7 4.8 4.7 4.9 4.8 4.9 4.8 4.9 5.0 5.0
6.4 6.4 6.5 6.5 6.5 6.4 6.4 6.4 6.3 6.3 6.1 6.0 5.9 5.8 5.6 5.4 5.4 5.4 5.3 5.3 5.4 5.5 5.5 5.3 5.2 5.3 5.3 5.1 5.2 5.2 5.2 5.2 5.1 5.0 4.8 4.7 4.7 4.8 4.9 4.8 4.9 5.1 5.1 5.4
6.3 6.4 6.4 6.4 6.2 6.2 6.2 6.0 6.0 5.9 5.9 5.9 5.7 5.6 5.5 5.6 5.4 5.4 5.4 5.3 5.3 5.4 5.5 5.4 5.4 5.5 5.5 5.4 5.3 5.4 5.3 5.2 5.3 5.3 5.2 5.0 4.9 4.9 4.9 4.8 4.8 4.9 5.0 5.2
6.2 6.3 6.7 6.4 6.0 6.2 6.3 6.4 6.2 6.2 6.0 5.8 5.6 5.7 5.6 5.7 5.5 5.5 5.5 5.4 5.5 5.5 5.6 5.5 5.5 5.5 5.4 5.5 5.6 5.6 5.5 5.4 5.3 5.3 5.3 5.2 5.1 5.0 5.0 5.1 5.0 4.9 5.0 5.1
6.0 6.1 6.2 6.6 6.5 6.3 6.5 6.5 6.5 6.4 6.4 6.1 6.0 5.8 5.6 5.7 5.5 5.6 5.6 5.7 5.9 5.9 5.9 5.7 5.8 5.7 5.5 5.6 5.8 5.7 5.6 5.5 5.5 5.5 5.4 5.3 5.3 5.3 5.1 5.3 5.2 5.2 5.2 5.2
5.7 5.9 6.0 6.1 6.2 6.2 6.3 6.4 6.4 6.4 6.4 6.4 6.1 6.1 6.0 6.0 5.8 5.8 5.9 6.1 6.2 6.2 6.1 6.0 6.1 5.9 5.7 5.7 5.8 5.8 5.8 5.8 5.7 5.6 5.6 5.6 5.5 5.4 5.6 4.9 5.2 5.4 5.3 5.3
5.7 5.6 6.2 6.4 6.5 6.4 6.4 6.4 6.4 6.4 6.4 6.3 6.3 6.1 6.0 6.1 6.2 6.3 6.3 6.3 6.3 6.3 6.2 6.1 6.2 5.9 5.8 5.9 5.9 5.8 5.7 5.7 5.7 5.7 5.6 5.5 5.5 5.4 5.4 5.7 5.3 4.9 5.3 5.0
6.2 6.2 6.0 6.2 6.3 6.3 6.3 6.4 6.4 6.5 6.4 6.4 6.4 6.5 6.4 6.4 6.5 6.4 6.4 6.4 6.4 6.3 6.2 6.3 6.3 6.0 6.0 6.0 5.9 5.7 5.6 5.6 5.4 5.4 5.4 5.4 5.5 5.5 5.4 5.4 5.5 5.4 4.8 5.0
5.9 6.3 6.2 6.4 6.4 6.4 6.3 6.4 6.5 6.5 6.5 6.5 6.5 6.5 6.5 6.5 6.6 6.6 6.5 6.5 6.6 6.4 6.3 6.3 6.3 6.1 6.1 6.1 6.0 5.8 5.8 5.7 5.6 5.6 5.5 5.5 5.6 5.7 5.6 5.4 5.3 5.2 5.1 4.8
5.6 6.0 6.3 6.6 6.4 6.3 6.4 6.5 6.5 6.5 6.6 6.6 6.6 6.6 6.6 6.6 6.6 6.6 6.5 6.5 6.5 6.5 6.3 6.3 6.2 6.1 6.1 6.2 6.0 6.0 5.9 5.8 5.7 5.7 5.8 5.9 6.0 5.8 5.7 5.6 5.5 5.3 5.3 5.2
5.8 5.7 5.8 5.7 5.8 6.0 6.2 6.1 6.2 6.4 6.5 6.6 6.6 6.7 6.7 6.7 6.7 6.6 6.6 6.6 6.6 6.5 6.5 6.4 6.4 6.2 6.2 6.1 5.9 6.1 6.1 6.0 5.8 5.8 5.9 5.9 6.0 6.0 5.8 5.6 5.6 5.6 5.6 5.5
5.6 5.8 5.8 5.9 5.9 6.0 6.1 6.1 6.1 6.1 6.2 6.2 6.4 6.6 6.6 6.6 6.6 6.6 6.6 6.6 6.5 6.5 6.4 6.5 6.5 6.5 6.3 6.2 6.1 6.2 6.2 6.1 6.0 6.0 6.0 5.9 5.8 5.7 5.7 5.6 5.5 5.4 5.6 5.7
5.5 5.6 5.8 5.9 6.0 6.1 6.3 6.2 6.3 6.2 6.1 6.2 6.3 6.3 6.4 6.4 6.5 6.5 6.6 6.6 6.5 6.5 6.5 6.4 6.5 6.5 6.2 6.2 6.2 6.1 6.1 6.1 6.1 6.0 5.9 5.9 5.9 5.8 5.7 5.5 5.5 5.4 5.5 5.7
5.0 5.0 5.1 5.3 5.5 5.5 5.8 6.0 6.2 6.3 6.2 6.2 6.1 6.1 6.1 6.2 6.2 6.3 6.4 6.6 6.5 6.6 6.5 6.4 6.4 6.2 6.1 6.1 6.2 6.1 6.0 5.9 5.9 5.9 5.9 5.9 5.9 5.9 5.7 5.5 5.4 5.3 5.4 5.5
4.3 4.5 4.8 5.0 5.1 5.3 5.3 5.6 5.9 6.0 6.1 6.1 6.0 6.0 6.0 6.0 6.0 6.1 6.3 6.5 6.4 6.4 6.4 6.5 6.4 6.2 5.9 6.1 6.2 6.3 6.3 5.9 5.8 5.8 5.9 6.0 5.9 5.9 5.8 5.7 5.5 5.4 5.5 5.5
3.8 4.1 4.3 4.4 4.8 5.0 5.1 5.3 5.6 5.8 5.9 5.9 5.9 5.9 6.0 5.9 5.9 5.9 5.9 6.0 6.2 6.2 6.3 6.5 6.2 6.0 5.9 6.3 6.5 6.6 6.4 6.0 5.9 6.1 6.3 6.2 6.0 5.9 5.9 5.8 5.6 5.5 5.5 5.5
3.7 4.0 4.2 4.3 4.5 4.7 4.8 5.0 5.1 5.3 5.5 5.6 5.7 5.7 5.7 5.8 5.8 5.8 5.8 5.8 5.8 5.9 6.3 6.1 6.1 5.5 6.4 6.7 6.5 6.3 6.3 6.4 6.4 6.5 6.5 6.5 6.3 6.1 5.9 5.9 5.8 5.7 5.5 5.5
3.6 3.8 4.2 4.4 4.5 4.6 4.5 4.6 4.6 4.7 5.0 5.1 5.2 5.3 5.4 5.6 5.5 5.5 5.6 5.7 5.7 5.9 6.0 6.0 6.0 5.7 6.4 6.4 6.5 6.4 6.5 6.5 6.5 6.6 6.6 6.7 6.6 6.4 6.0 5.9 5.9 5.8 5.6 5.4
3.9 3.9 3.9 4.0 4.0 4.2 4.3 4.4 4.5 4.5 4.7 4.8 4.9 5.0 5.0 5.0 5.1 5.3 5.4 5.6 5.8 5.9 5.9 5.9 5.9 6.1 6.1 6.4 6.4 6.5 6.5 6.5 6.5 6.6 6.6 6.6 6.6 6.5 6.1 5.9 6.0 5.8 5.7 5.6
4.1 4.1 4.2 4.1 4.3 4.5 4.4 4.5 4.5 4.5 4.5 4.7 4.7 4.8 4.9 5.0 5.1 5.3 5.4 5.6 5.8 5.8 5.8 5.9 6.0 6.1 6.3 6.3 6.4 6.4 6.4 6.4 6.5 6.5 6.5 6.6 6.6 6.4 6.2 5.9 6.0 5.9 5.8 5.8
Wind_Speed
2 3 2 3 1 1 3 3 3 3 5 8 7 6 3 2 2 2 3 4 2 1 2 3 4 5 6 5 5 3 3 2 3 3 2 2 3 3 3 2 2 4 3 4
2 1 1 2 3 4 3 2 3 1 2 1 0 2 1 3 3 2 1 3 3 2 3 2 3 3 4 6 6 5 4 5 4 3 3 3 3 2 2 2 3 2 4 3
2 4 2 2 3 1 1 2 5 2 6 5 2 4 3 4 3 3 3 2 2 3 2 3 3 3 4 5 4 5 4 4 5 5 4 4 4 3 3 3 2 4 5 4
1 3 3 4 3 3 1 2 4 1 4 7 6 3 2 3 5 4 2 2 2 2 4 4 4 5 4 4 4 4 4 5 4 4 4 4 3 4 3 2 3 3 4 5
2 1 2 2 1 2 3 3 4 4 5 4 3 3 4 5 5 3 3 3 2 2 3 5 5 5 5 5 4 3 4 4 4 3 4 5 4 4 3 3 3 3 3 4
2 3 2 3 4 2 1 3 3 4 5 5 5 2 4 6 3 3 3 1 2 3 3 4 5 5 5 5 5 5 4 3 3 3 3 4 4 5 3 3 4 2 4 5
1 1 2 3 3 4 4 4 3 3 4 5 4 4 3 3 3 4 3 2 3 2 4 5 5 5 5 5 5 5 5 6 6 3 3 4 4 2 3 3 3 3 4 4
1 3 1 4 4 4 4 3 3 1 3 4 4 3 3 4 4 3 3 2 2 3 4 4 4 4 5 5 5 6 7 7 7 6 7 5 4 4 3 3 3 5 4 5
4 2 1 2 4 3 4 4 3 2 4 3 3 4 2 3 4 4 5 4 3 4 5 4 4 4 5 5 5 6 5 7 7 8 8 8 5 5 4 3 4 5 5 4
4 4 4 6 4 3 4 4 3 3 3 3 5 4 4 4 4 4 4 4 3 4 5 6 4 6 5 7 6 5 6 7 6 6 8 5 6 5 3 3 3 5 5 6
4 5 8 3 3 3 3 4 4 4 5 5 3 5 4 4 5 5 4 3 2 4 5 7 6 6 5 6 5 6 6 6 7 6 6 6 7 5 5 6 8 6 7 6
4 6 5 9 5 3 5 7 8 8 4 4 4 7 3 6 4 3 5 3 4 5 5 7 5 6 7 5 5 5 6 6 5 6 5 7 6 8 15 18 20 22 23 15
4 3 6 14 8 4 4 7 7 6 6 5 4 5 3 4 3 6 5 5 5 7 6 6 6 7 6 5 4 6 6 7 6 8 5 6 6 7 8 10 16 18 21 23
5 3 8 2 6 6 8 11 7 3 4 5 5 3 4 5 4 5 7 7 5 5 6 6 5 7 7 4 5 6 6 14 6 5 6 6 7 7 7 7 8 8 12 15
7 5 10 13 10 9 5 2 5 7 5 5 5 7 5 7 7 8 7 6 5 4 6 5 5 8 5 4 5 5 5 4 5 6 6 9 7 7 7 8 8 8 7 11
13 9 9 4 10 9 7 6 7 8 7 7 7 7 9 8 7 6 6 4 3 5 6 5 5 7 6 3 5 4 5 13 10 4 5 6 6 7 8 8 8 7 7 7
12 14 16 15 13 13 13 11 9 9 9 7 8 7 5 5 5 5 6 6 6 6 7 5 7 6 5 5 5 4 4 4 11 4 5 5 6 7 7 7 6 6 7 8
7 12 12 13 14 14 13 10 9 10 9 8 6 5 4 4 6 6 5 5 4 5 5 7 6 6 6 5 5 5 4 3 3 4 5 5 6 7 5 6 5 5 4 5
12 14 14 14 14 13 12 11 9 9 8 5 4 5 5 5 5 6 4 4 5 5 7 5 10 8 3 6 8 1 2 2 3 3 3 9 6 6 5 4 4 4 3 4
16 14 14 15 13 12 13 11 10 8 8 5 5 4 5 6 5 5 4 6 6 5 5 7 6 4 5 6 12 2 2 1 2 3 4 4 6 5 5 9 5 3 2 2
16 15 16 15 14 13 11 10 9 8 8 5 6 6 6 5 4 4 4 4 4 5 6 10 3 3 3 7 4 2 1 2 2 2 3 4 6 6 5 4 4 3 2 1
14 14 15 14 13 13 12 11 9 8 7 7 6 5 5 5 5 5 5 5 4 10 4 2 2 9 9 4 3 2 1 2 2 2 3 3 4 5 5 4 3 3 2 1
12 13 13 13 13 12 11 9 8 7 7 6 5 4 4 3 3 3 3 3 3 7 3 1 8 12 12 4 2 1 2 2 2 3 3 3 3 4 5 4 3 2 2 1
12 13 13 10 12 11 12 12 12 9 7 6 5 4 4 2 3 3 4 8 10 7 2 4 7 3 10 2 2 1 1 2 3 3 3 8 3 3 3 4 3 2 2 2
12 12 11 11 11 9 12 13 9 9 9 6 5 4 4 2 3 2 2 3 8 5 2 6 10 11 3 1 1 1 2 2 4 2 2 3 3 3 4 3 3 3 2 1
11 9 8 11 9 9 8 8 7 7 8 7 6 4 4 2 2 3 1 3 1 3 2 2 2 1 2 2 0 2 2 3 4 4 4 3 3 3 3 4 3 3 2 1
8 16 8 9 9 8 8 9 7 7 8 6 4 4 4 4 4 4 4 2 2 2 2 2 2 4 3 2 2 2 2 2 6 4 1 2 3 3 3 3 3 2 2 1
Wind_Direction
250 234 173 174 140 147 109 211 147 247 169 178 165 180 197 231 260 161 164 153 186 103 348 350 10 5 1 352 348 321 296 249 256 260 263 275 283 283 291 266 254 257 269 266
324 254 188 95 105 111 113 148 76 179 28 148 106 85 287 272 299 261 205 169 144 31 33 48 14 354 352 342 340 343 320 297 307 321 324 295 277 272 276 257 246 238 240 233
293 6 46 352 227 148 164 190 147 145 222 159 187 223 224 256 217 215 154 117 4 352 16 6 354 356 333 318 321 353 343 326 329 334 318 301 297 310 281 263 224 236 243 236
226 15 29 256 255 228 158 213 210 226 184 177 183 211 212 210 167 201 254 301 340 349 333 330 336 336 325 329 337 344 349 352 350 349 324 321 299 277 283 270 243 239 242 230
94 175 283 53 11 137 139 274 198 165 169 179 98 77 297 194 190 202 204 224 235 290 309 321 322 326 330 328 329 338 322 325 323 340 331 332 315 285 258 245 258 243 237 239
63 91 47 268 319 25 122 340 214 181 176 159 131 172 250 172 175 215 174 192 285 285 298 310 308 321 325 315 321 313 312 308 293 295 303 309 288 291 253 211 238 235 255 236
2 113 330 320 333 317 69 250 337 207 182 151 181 203 170 177 226 172 183 222 262 299 285 286 302 317 308 310 304 303 324 314 304 286 288 254 273 257 267 266 266 252 248 251
66 54 321 9 348 110 230 294 283 147 185 194 226 198 234 259 263 252 277 280 292 288 284 290 300 303 293 290 296 313 309 308 305 300 297 290 261 270 277 263 249 260 264 272
156 213 319 284 207 252 170 214 264 194 238 204 216 237 259 261 267 272 283 290 290 284 287 285 289 282 284 281 301 296 300 296 294 296 298 295 279 264 269 233 236 254 244 247
40 309 269 282 292 256 202 231 258 235 224 198 228 236 253 260 255 256 260 269 271 283 283 287 284 293 269 285 293 293 290 290 290 285 289 275 295 287 244 247 243 247 242 245
276 310 317 353 256 241 277 251 256 235 220 233 231 259 240 252 251 248 254 259 249 258 261 272 285 286 280 289 287 285 278 280 284 290 283 284 279 269 259 246 245 253 242 233
245 245 203 268 266 239 252 257 267 252 244 225 209 248 206 254 238 231 255 253 257 260 261 272 268 278 283 273 267 269 277 281 279 288 289 289 285 289 283 283 279 273 269 247
259 245 223 274 286 243 241 265 260 230 225 239 243 234 202 241 239 253 225 244 245 250 255 266 276 279 276 271 263 268 261 271 274 286 281 276 283 281 290 294 287 281 277 273
267 341 301 268 279 285 276 278 290 258 235 232 240 221 227 234 288 267 259 245 239 248 261 254 262 269 269 259 273 268 265 279 284 279 273 269 267 270 272 277 286 287 280 279
284 231 262 290 305 286 260 265 268 264 256 255 223 234 196 232 241 245 249 253 255 260 268 260 258 273 266 248 276 266 270 264 263 264 264 270 273 272 264 269 270 274 282 284
308 290 283 265 280 282 274 268 248 262 262 256 246 234 232 221 233 243 247 230 191 249 255 246 264 265 268 250 265 272 268 283 296 295 290 284 280 275 275 270 269 265 260 262
325 322 316 308 306 304 297 278 267 269 271 255 252 250 232 227 227 237 246 243 224 240 243 232 257 270 261 259 243 259 264 269 294 310 287 280 280 276 270 265 265 266 258 251
259 284 290 291 299 304 306 299 287 279 268 265 252 236 222 214 236 248 244 252 265 269 251 253 255 260 256 252 251 254 240 254 278 272 284 289 283 284 291 272 265 270 265 250
310 309 310 309 309 303 299 297 288 280 281 263 242 239 236 240 242 247 239 239 244 257 266 251 268 277 264 285 291 180 244 264 274 286 288 308 309 295 291 287 275 274 266 265
324 322 318 312 314 310 304 299 295 287 283 258 246 242 252 254 241 244 237 244 243 236 252 263 259 253 266 270 292 165 206 281 302 302 309 334 315 328 334 336 312 268 296 293
328 326 325 322 319 315 310 304 298 288 287 262 250 248 252 263 248 250 257 265 268 259 261 265 258 241 241 276 257 148 75 301 302 305 314 319 320 324 323 324 325 307 296 294
333 333 331 331 330 325 325 321 311 298 292 287 268 260 255 262 256 254 244 254 276 286 270 251 273 282 272 261 115 97 24 299 296 300 309 311 316 323 319 316 319 322 317 293
338 334 332 333 331 321 315 320 322 315 303 299 289 273 260 257 255 258 279 259 261 272 264 214 280 298 90 84 82 60 9 334 311 295 293 293 301 310 315 310 297 308 311 305
334 334 330 339 337 344 345 339 339 334 318 307 292 279 270 276 272 235 257 290 316 314 66 298 296 345 78 63 48 342 306 307 300 290 281 331 305 304 310 312 308 293 295 289
340 332 339 352 347 344 339 335 339 345 334 325 313 303 291 261 251 267 228 249 298 340 56 345 324 337 86 71 348 338 321 312 290 272 311 295 308 311 309 315 309 285 270 244
337 341 349 342 340 335 335 345 345 342 349 342 333 324 315 306 294 340 340 309 242 2 26 349 305 327 7 330 92 318 301 306 322 302 307 326 313 310 308 314 320 322 307 230
345 349 357 341 336 332 339 355 340 338 331 328 333 3 359 1 360 31 43 32 33 14 350 349 8 327 330 306 320 305 298 290 308 283 349 300 305 296 305 306 306 310 317 253